Home > Weather > Halberstadt > Past weeks

Flag for Germany Weather for the Past 2 Weeks in Halberstadt, Saxony-Anhalt, Germany

Now
48 °F

Partly sunny.


Feels Like: 41 °F
Forecast: 40 / 48 °F
Wind: 21 mph from Southwest

Location: Braunschweig Wolfsburg

Current Time: Feb 8, 2016 at 1:43:08 PM

Latest Report: Feb 8, 2016 at 12:50 PM


Visibility: N/A

Pressure: 29.27 "Hg

Humidity: 76%

Dew point: 41 °F

Location of HalberstadtLocation

Historic Weather in Halberstadt — Graph

°F

Halberstadt Temperature Yesterday

Maximum temperature yesterday: 55 °F (at 11:50 AM)
Minimum temperature yesterday: 46 °F (at 5:50 PM)
Average temperature yesterday: 52 °F

High & Low Weather Summary for the Past Weeks

 TemperatureHumidityPressure
High55 °F (Feb 7, 11:50 AM)100% (Jan 25, 6:50 AM)30.42 "Hg (Jan 25, 6:50 AM)
Low37 °F (Jan 28, 7:50 PM)51% (Feb 7, 11:50 AM)29.30 "Hg (Feb 8, 10:50 AM)
Average46 °F77%29.96 "Hg
* Reported Jan 24 12:20 PM — Feb 8 12:20 PM, Halberstadt, Weather by CustomWeather, © 2016

Note: Actual official high and low records may vary slightly from our data, if they occured in-between our weather recording intervals... More about our weather records

Advertising

Halberstadt Weather History for the Previous 24 Hours

 ConditionsComfort  
Time TempWeatherWind HumidityBarometerVisibility
12:20 PM
Mon, Feb 8
46 °FPartly sunny.20 mph87%29.30 "HgN/A
11:50 AM46 °FMore clouds than sun.17 mph82%29.33 "HgN/A
11:20 AM46 °FPartly sunny.17 mph82%29.33 "HgN/A
10:50 AM48 °FBroken clouds.24 mph71%29.30 "HgN/A
10:20 AM48 °FBroken clouds.23 mph66%29.33 "HgN/A
9:50 AM48 °FBroken clouds.22 mph71%29.33 "HgN/A
9:20 AM45 °FDrizzle. Overcast.21 mph81%29.33 "HgN/A
8:50 AM46 °FLight rain. Cloudy.23 mph71%29.36 "HgN/A
8:20 AM48 °FMostly cloudy.18 mph62%29.36 "HgN/A
7:50 AM46 °FPartly sunny.21 mph66%29.36 "HgN/A
7:20 AM46 °FPartly cloudy.20 mph66%29.39 "HgN/A
6:50 AM46 °FPassing clouds.18 mph62%29.36 "HgN/A
5:50 PM
Sun, Feb 7
46 °FLight rain. Mostly cloudy.10 mph87%29.59 "HgN/A
5:20 PM48 °FLight rain. Overcast.10 mph82%29.56 "HgN/A
4:50 PM48 °FLight rain. Mostly cloudy.8 mph82%29.56 "HgN/A
4:20 PM48 °FLight rain. Overcast.9 mph82%29.53 "HgN/A
3:50 PM50 °FOvercast.9 mph76%29.53 "HgN/A
3:20 PM54 °FSunny.17 mph63%29.53 "Hg10 mi
2:50 PM55 °FOvercast.21 mph55%29.53 "HgN/A
2:20 PM55 °FPassing clouds.13 mph59%29.50 "HgN/A
1:50 PM55 °FSunny.15 mph55%29.50 "Hg10 mi
1:20 PM55 °FSunny.15 mph51%29.50 "Hg10 mi
Weather by CustomWeather, © 2016

See weather overviewHow to use our weather pages